Date String (YYYY-MM-DD hh:mm:ss) UTC,Instrument flags,absolute air pressure of the measurement (hPa),sample flow rate (lpm),inlet stack bypass flow (lpm),air temperature of the measurement (°C),ambient temperature measured by the external sensor (°C),aerosol sample conditioner tube jacket temperature (°C),OPC LED temperature (°C),internal box temperature (°C),relative humidity of the measurement (%),span deviation,mass concentration of particles derived from Lorenz-Mie calculation of OPC scattering (μg/m³),mass concentration of particles derived from Lorenz-Mie calculation of OPC scattering (μg/m³),mass concentration of particles derived from Lorenz-Mie calculation of OPC scattering (μg/m³)
DateTimeUTC,F1_M11,P_M11,Q1_M11,Q2_M11,T1_M11,T2_M11,T3_M11,T4_M11,T5_M11,U1_M11,ZSPAN_M11,X0_M11,X2_M11,X1_M11
2023-11-21 23:00:00,SystemResetWarning,0838.6,5.00,000.00,026.3,025.4,000.0,034.5,027.7,8.4,0000.0,0007.43,0002.00,0001.10
2023-11-21 23:01:00,SystemResetWarning,0838.6,5.00,000.00,026.4,025.4,000.0,034.5,027.7,8.4,0000.0,0006.86,0001.92,0001.09
2023-11-21 23:02:00,SystemResetWarning,0838.7,5.00,000.00,026.4,025.4,000.0,034.5,027.7,8.4,0000.0,0006.75,0001.92,0001.08
2023-11-21 23:03:00,SystemResetWarning,0838.7,5.00,000.00,026.4,025.4,000.0,034.6,027.7,8.4,0000.0,0006.80,0001.86,0001.08
2023-11-21 23:04:00,SystemResetWarning,0838.7,5.00,000.00,026.4,025.4,000.0,034.6,027.7,8.4,0000.0,0007.28,0001.79,0001.06
2023-11-21 23:05:00,SystemResetWarning,0838.7,5.00,000.00,026.4,025.4,000.0,034.6,027.7,8.4,0000.0,0007.47,0001.77,0001.06
2023-11-21 23:06:00,SystemResetWarning,0838.7,5.00,000.00,026.4,025.4,000.0,034.6,027.7,8.4,0000.0,0008.42,0001.75,0001.06
2023-11-21 23:07:00,SystemResetWarning,0838.7,4.99,000.00,026.4,025.4,000.0,034.6,027.7,8.4,0000.0,0009.34,0001.72,0001.06
2023-11-21 23:08:00,SystemResetWarning,0838.7,5.00,000.00,026.4,025.4,000.0,034.6,027.7,8.3,0000.0,0009.94,0001.77,0001.06
2023-11-21 23:09:00,SystemResetWarning,0838.7,5.00,000.00,026.4,025.4,000.0,034.6,027.7,8.3,0000.0,0010.87,0001.89,0001.08
2023-11-21 23:10:00,SystemResetWarning,0838.7,5.00,000.00,026.4,025.4,000.0,034.6,027.7,8.3,0000.0,0010.59,0001.89,0001.08
2023-11-21 23:11:00,SystemResetWarning,0838.7,5.00,000.00,026.4,025.4,000.0,034.6,027.7,8.3,0000.0,0010.66,0001.84,0001.09
2023-11-21 23:12:00,SystemResetWarning,0838.7,5.00,000.00,026.4,025.5,000.0,034.6,027.7,8.3,0000.0,0011.74,0001.90,0001.09
2023-11-21 23:13:00,SystemResetWarning,0838.7,5.01,000.00,026.4,025.5,000.0,034.6,027.7,8.3,0000.0,0012.00,0001.89,0001.09
2023-11-21 23:14:00,SystemResetWarning,0838.7,5.00,000.00,026.4,025.5,000.0,034.6,027.7,8.3,0000.0,0012.23,0001.92,0001.09
2023-11-21 23:15:00,SystemResetWarning,0838.7,5.00,000.00,026.4,025.5,000.0,034.6,027.7,8.3,0000.0,0011.87,0001.90,0001.09
2023-11-21 23:16:00,SystemResetWarning,0838.7,5.00,000.00,026.4,025.5,000.0,034.6,027.7,8.3,0000.0,0011.81,0001.91,0001.11
2023-11-21 23:17:00,SystemResetWarning,0838.7,5.00,000.00,026.4,025.5,000.0,034.6,027.7,8.3,0000.0,0011.13,0001.91,0001.11
2023-11-21 23:18:00,SystemResetWarning,0838.7,5.00,000.00,026.4,025.5,000.0,034.6,027.8,8.3,0000.0,0010.28,0001.94,0001.10
2023-11-21 23:19:00,SystemResetWarning,0838.7,4.99,000.00,026.4,025.5,000.0,034.6,027.8,8.3,0000.0,0009.58,0001.94,0001.12
2023-11-21 23:20:00,SystemResetWarning,0838.7,5.00,000.00,026.4,025.5,000.0,034.6,027.8,8.4,0000.0,0008.61,0001.92,0001.11
2023-11-21 23:21:00,SystemResetWarning,0838.8,5.01,000.00,026.4,025.5,000.0,034.6,027.7,8.3,0000.0,0009.27,0001.94,0001.12
2023-11-21 23:22:00,SystemResetWarning,0838.7,5.01,000.00,026.4,025.5,000.0,034.6,027.7,8.3,0000.0,0010.08,0002.03,0001.12
2023-11-21 23:23:00,SystemResetWarning,0838.8,5.00,000.00,026.5,025.5,000.0,034.7,027.8,8.3,0000.0,0009.96,0002.03,0001.12
2023-11-21 23:24:00,SystemResetWarning,0838.8,4.99,000.00,026.5,025.5,000.0,034.7,027.8,8.3,0000.0,0009.31,0002.02,0001.12
2023-11-21 23:25:00,SystemResetWarning,0838.8,4.99,000.00,026.5,025.5,000.0,034.7,027.8,8.3,0000.0,0009.91,0002.04,0001.11
2023-11-21 23:26:00,SystemResetWarning,0838.8,4.99,000.00,026.5,025.5,000.0,034.7,027.8,8.3,0000.0,0010.49,0002.05,0001.11
2023-11-21 23:27:00,SystemResetWarning,0838.8,5.00,000.00,026.5,025.5,000.0,034.7,027.8,8.3,0000.0,0010.71,0002.08,0001.11
2023-11-21 23:28:00,SystemResetWarning,0838.8,5.01,000.00,026.5,025.5,000.0,034.7,027.8,8.3,0000.0,0010.81,0002.07,0001.10
2023-11-21 23:29:00,SystemResetWarning,0838.7,5.00,000.00,026.5,025.5,000.0,034.7,027.8,8.2,0000.0,0011.02,0002.11,0001.12
2023-11-21 23:30:00,SystemResetWarning,0838.8,5.00,000.00,026.5,025.5,000.0,034.7,027.8,8.2,0000.0,0011.42,0002.08,0001.11
2023-11-21 23:31:00,SystemResetWarning,0838.8,5.00,000.00,026.5,025.5,000.0,034.7,027.8,8.2,0000.0,0011.39,0002.03,0001.10
2023-11-21 23:32:00,SystemResetWarning,0838.7,4.99,000.00,026.5,025.5,000.0,034.7,027.8,8.3,0000.0,0010.34,0001.99,0001.10
2023-11-21 23:33:00,SystemResetWarning,0838.8,4.99,000.00,026.5,025.5,000.0,034.7,027.8,8.3,0000.0,0009.45,0001.91,0001.09
2023-11-21 23:34:00,SystemResetWarning,0838.8,4.99,000.00,026.5,025.5,000.0,034.7,027.8,8.3,0000.0,0008.53,0001.88,0001.09
2023-11-21 23:35:00,SystemResetWarning,0838.8,5.00,000.00,026.5,025.5,000.0,034.7,027.8,8.3,0000.0,0008.35,0001.91,0001.09
2023-11-21 23:36:00,SystemResetWarning,0838.7,5.01,000.00,026.5,025.5,000.0,034.7,027.8,8.3,0000.0,0007.55,0001.91,0001.12
2023-11-21 23:37:00,SystemResetWarning,0838.8,5.00,000.00,026.5,025.5,000.0,034.7,027.8,8.3,0000.0,0007.60,0001.90,0001.12
2023-11-21 23:38:00,SystemResetWarning,0838.8,5.00,000.00,026.5,025.5,000.0,034.7,027.8,8.2,0000.0,0007.82,0001.89,0001.12
2023-11-21 23:39:00,SystemResetWarning,0838.8,5.00,000.00,026.5,025.5,000.0,034.7,027.8,8.2,0000.0,0007.59,0001.96,0001.13
2023-11-21 23:40:00,SystemResetWarning,0838.8,5.00,000.00,026.5,025.5,000.0,034.7,027.8,8.2,0000.0,0007.38,0001.93,0001.13
2023-11-21 23:41:00,SystemResetWarning,0838.8,5.00,000.00,026.5,025.5,000.0,034.7,027.8,8.1,0000.0,0007.34,0001.92,0001.14
2023-11-21 23:42:00,SystemResetWarning,0838.8,5.00,000.00,026.5,025.5,000.0,034.7,027.8,8.2,0000.0,0007.27,0001.92,0001.15
2023-11-21 23:43:00,SystemResetWarning,0838.8,5.00,000.00,026.5,025.6,000.0,034.7,027.8,8.1,0000.0,0008.58,0001.89,0001.16
2023-11-21 23:44:00,SystemResetWarning,0838.8,5.00,000.00,026.5,025.6,000.0,034.8,027.8,8.2,0000.0,0009.31,0001.93,0001.17
2023-11-21 23:45:00,SystemResetWarning,0838.8,5.00,000.00,026.5,025.5,000.0,034.8,027.8,8.2,0000.0,0010.49,0002.00,0001.18
2023-11-21 23:46:00,SystemResetWarning,0838.8,5.00,000.00,026.5,025.5,000.0,034.8,027.8,8.2,0000.0,0012.14,0001.99,0001.18
2023-11-21 23:47:00,SystemResetWarning,0838.8,5.00,000.00,026.5,025.5,000.0,034.8,027.8,8.2,0000.0,0013.07,0001.97,0001.17
2023-11-21 23:48:00,SystemResetWarning,0838.8,5.00,000.00,026.5,025.5,000.0,034.8,027.8,8.3,0000.0,0013.78,0001.94,0001.18
2023-11-21 23:49:00,SystemResetWarning,0838.8,5.00,000.00,026.5,025.5,000.0,034.8,027.8,8.3,0000.0,0013.76,0001.98,0001.18
2023-11-21 23:50:00,SystemResetWarning,0838.8,5.00,000.00,026.5,025.5,000.0,034.8,027.8,8.3,0000.0,0014.42,0001.96,0001.19
2023-11-21 23:51:00,SystemResetWarning,0838.8,5.00,000.00,026.5,025.5,000.0,034.8,027.8,8.3,0000.0,0014.45,0001.91,0001.17
2023-11-21 23:52:00,SystemResetWarning,0838.8,5.00,000.00,026.5,025.5,000.0,034.8,027.7,8.3,0000.0,0013.93,0001.96,0001.17
2023-11-21 23:53:00,SystemResetWarning,0838.8,5.00,000.00,026.5,025.5,000.0,034.8,027.7,8.3,0000.0,0014.02,0001.99,0001.17
2023-11-21 23:54:00,SystemResetWarning,0838.8,5.00,000.00,026.5,025.4,000.0,034.8,027.7,8.3,0000.0,0013.97,0002.03,0001.17
2023-11-21 23:55:00,SystemResetWarning,0838.8,5.00,000.00,026.5,025.4,000.0,034.8,027.7,8.3,0000.0,0013.59,0002.06,0001.18
2023-11-21 23:56:00,SystemResetWarning,0838.8,5.00,000.00,026.5,025.4,000.0,034.8,027.7,8.4,0000.0,0013.70,0002.08,0001.19
2023-11-21 23:57:00,SystemResetWarning,0838.8,5.00,000.00,026.4,025.4,000.0,034.7,027.7,8.4,0000.0,0012.13,0002.04,0001.19
2023-11-21 23:58:00,SystemResetWarning,0838.9,4.99,000.00,026.4,025.3,000.0,034.7,027.6,8.4,0000.0,0011.66,0002.03,0001.19
2023-11-21 23:59:00,SystemResetWarning,0838.9,5.00,000.00,026.4,025.3,000.0,034.7,027.7,8.4,0000.0,0010.76,0002.04,0001.18
